Regional Weather Roundup
Issued by NWS

Home | Current Version | Previous Version | Graphics & Text | Print | Product List | Glossary On
Versions: 1 2 3 4 5 6 7 8 9 10 11 12 13 14 15 16 17 18 19 20 21 22 23 24 25 26 27 28 29 30 31 32 33 34 35 36 37 38 39 40 41 42 43 44 45 46 47 48 49 50
000
ASUS43 KOAX 110202
RWRNE

WEATHER ROUNDUP FOR NEBRASKA
NATIONAL WEATHER SERVICE OMAHA NE
800 PM CST SUN DEC 10 2017

NOTES: SATELLITE DATA IS BEING USED TO AUGMENT CLOUD COVER ABOVE
       12000 FEET.
       "FAIR" INDICATES FEW OR NO CLOUDS BELOW 12,000 FEET WITH NO
       SIGNIFICANT WEATHER AND/OR OBSTRUCTIONS TO VISIBILITY.


NEZ001>004-019>022-054>056-110300-
NEBRASKA PANHANDLE

CITY           SKY/WX    TMP DP  RH WIND       PRES   REMARKS
SCOTTSBLUFF    CLOUDY    35   8  32 NW8       30.27R WCI  29
ALLIANCE       CLOUDY    32   7  35 W13       30.23R WCI  22
CHADRON        CLOUDY    41  13  31 W8        30.21S
GORDON         FAIR      47  16  29 W17       30.15S
KIMBALL        CLOUDY    38   5  25 W17       30.30R WCI  28
SIDNEY         CLEAR     41   5  22 W14       30.27S
$$

NEZ057>060-069>072-079>082-110300-
SOUTHWEST NEBRASKA

CITY           SKY/WX    TMP DP  RH WIND       PRES   REMARKS
NORTH PLATTE   CLEAR     32  14  47 NW7       30.19R WCI  26
IMPERIAL       CLOUDY    42   3  19 W7        30.23S
LEXINGTON      CLOUDY    37  13  37 W9        30.16F WCI  31
MCCOOK         CLEAR     40   9  28 W10       30.20S WCI  33
OGALLALA       CLOUDY    37   6  28 W6        30.22S WCI  32
$$

NEZ005>010-023>029-035>040-094-110300-
NORTH CENTRAL NEBRASKA

CITY           SKY/WX    TMP DP  RH WIND       PRES   REMARKS
VALENTINE      CLEAR     42  19  39 W8        30.11F
AINSWORTH      CLEAR     38  19  46 W10       30.10F WCI  32
BROKEN BOW     CLEAR     38  12  34 W7        30.14S WCI  33
O`NEILL        PTCLDY    43  20  40 W7        30.07F
ORD            CLEAR     45  13  27 NW6       30.10F
THEDFORD       CLEAR     39  12  32 W9        30.16S WCI  33
$$

NEZ041-046>049-061>064-073>077-083>087-110300-
SOUTH CENTRAL NEBRASKA

CITY           SKY/WX    TMP DP  RH WIND       PRES   REMARKS
GRAND ISLAND   CLEAR     44  17  33 W13       30.12F
AURORA         CLEAR     35  12  38 W10       30.12S WCI  28
HASTINGS       CLEAR     46  13  26 W12       30.14S
HEBRON         CLEAR     36  15  42 W3        30.14S
HOLDREGE       CLEAR     46  15  28 W10       30.15F
KEARNEY        CLEAR     48  13  24 W9        30.15F
YORK           CLEAR     39  14  35 W7        30.11F WCI  34
$$

NEZ011>018-030>034-042>045-110300-
NORTHEAST NEBRASKA

CITY           SKY/WX    TMP DP  RH WIND       PRES   REMARKS
NORFOLK        CLOUDY    34  19  54 CALM      30.07F
ALBION         CLEAR     37  17  45 NW5       30.09F WCI  33
BLAIR          CLEAR     39  25  56 CALM      30.08F
COLUMBUS       CLEAR     31  17  56 CALM      30.10S
FREMONT        CLOUDY    33  21  61 CALM      30.09F
TEKAMAH        CLOUDY    29  18  63 CALM      30.09F
WAYNE          PTCLDY    28  19  70 SW3       30.08S
$$

NEZ050>053-065>068-078-088>093-110300-
SOUTHEAST NEBRASKA

CITY           SKY/WX    TMP DP  RH WIND       PRES   REMARKS
LINCOLN        CLEAR     30  17  58 CALM      30.12F
OMAHA EPPLEY   PTCLDY    33  22  63 CALM      30.09F
BEATRICE       CLEAR     34  19  52 CALM      30.12F
FALLS CITY     CLEAR     44  21  40 SW6       30.12R
NEBRASKA CITY  CLEAR     45  22  39 W7        30.10F
PLATTSMOUTH    CLEAR     44  22  41 SW6       30.10S
$$

NEZ044-045-051>053-067-110300-
OMAHA AREA

CITY           SKY/WX    TMP DP  RH WIND       PRES   REMARKS
OMAHA EPPLEY   PTCLDY    33  22  63 CALM      30.09F
BLAIR          CLEAR     39  25  56 CALM      30.08F
FREMONT        CLOUDY    33  21  61 CALM      30.09F
MILLARD        CLEAR     36  26  66 CALM      30.10S
OFFUTT AFB     PTCLDY    31  21  67 CALM      30.09F
PLATTSMOUTH    CLEAR     44  22  41 SW6       30.10S
WAHOO          FAIR      38  19  46 W3        30.09F
$$




USA.gov is the U.S. government's official web portal to all federal, state and local government web resources and services.